SCP
0 0 0 0 0 0 0 -0 -0 -0 0 0 0 0 0 0 0 0 0 0 0 0 0 0 0 0 0 0 4 3 1 1 3 3 0 1 0 0 0 0 0 0 0 0
0 0 0 0 0 0 0 0 -0 -0 -0 0 0 0 0 0 0 0 0 0 0 0 0 0 0 0 0 0 2 3 2 1 1 2 2 1 2 0 0 0 0 0 0 0
0 0 0 0 0 0 0 0 0 0 -0 0 0 -0 -0 0 0 0 0 0 0 0 0 0 0 0 0 0 1 5 2 1 2 3 2 3 3 1 1 0 1 0 0 0
0 0 0 0 0 0 -0 0 0 0 0 0 0 -0 -0 -0 0 0 0 0 0 0 0 0 0 0 0 0 1 7 8 4 4 5 4 3 3 3 1 1 1 0 0 0
0 -0 0 0 0 0 0 0 0 0 0 0 0 0 -0 0 0 0 0 0 0 0 0 0 0 0 0 0 0 4 12 6 5 7 3 5 3 2 2 1 2 1 1 0
-0 0 0 0 0 0 -0 0 0 -0 -0 0 0 0 0 0 0 0 0 0 0 0 0 0 0 0 0 0 0 0 6 8 6 8 6 5 4 3 3 1 2 3 2 1
0 0 0 0 0 -0 0 0 0 -0 0 0 0 0 0 0 0 0 0 0 0 0 0 0 0 0 0 0 0 0 4 5 6 5 7 4 4 4 2 3 2 3 5 3
0 0 0 -0 0 0 0 0 0 0 0 0 -0 0 0 0 0 0 0 0 0 0 0 0 0 0 0 0 0 0 1 5 6 6 4 6 4 6 5 4 4 5 6 5
0 0 0 0 -0 0 0 0 0 0 0 0 0 0 0 0 0 0 0 0 0 -0 0 0 0 0 0 0 0 0 0 6 7 6 7 5 6 5 5 4 4 6 5 5
0 0 0 0 0 0 -0 0 0 0 0 0 0 -0 0 0 -0 0 0 0 0 0 0 0 0 0 0 0 0 0 0 2 7 5 5 6 4 5 5 8 5 5 4 4
0 0 0 0 0 0 -0 0 -0 0 0 -0 -0 -0 -0 -0 -0 0 0 0 0 0 0 0 0 0 0 0 0 0 0 0 7 8 8 6 5 4 7 6 6 6 6 5
0 0 0 0 -0 0 0 0 -0 -0 -0 -0 -0 -0 -0 -0 0 -0 0 0 0 0 0 0 0 0 -0 0 0 0 0 0 7 11 8 7 6 5 5 6 3 1 5 6
0 0 0 0 0 0 0 -0 0 0 -0 0 -0 -0 -0 -0 0 0 0 0 0 0 0 0 0 0 0 0 0 0 0 0 0 12 9 7 5 6 5 2 0 0 0 0
0 0 0 0 0 0 0 -0 -0 -0 -0 -0 -0 -0 -0 -0 0 0 0 0 0 0 0 0 0 0 0 0 0 0 0 0 0 3 6 5 5 6 3 1 0 0 0 0
0 0 0 0 0 0 0 -0 0 0 -0 -0 -0 -0 -0 -0 -0 -0 0 -0 0 0 0 0 0 0 0 0 -0 -0 0 0 0 0 1 4 4 4 1 1 0 0 0 0
0 0 0 0 0 0 0 0 -0 0 0 0 -0 -0 -0 -0 -0 0 0 0 0 0 0 0 0 0 0 0 0 -0 0 0 0 0 0 0 4 4 1 1 0 1 0 0
0 0 0 0 0 0 0 0 -0 0 0 0 0 -0 -0 -0 -0 -0 0 0 0 0 0 0 0 0 0 0 0 0 -0 -0 0 0 0 0 2 3 2 1 0 0 0 0
0 0 0 0 0 0 0 0 0 0 0 0 -0 0 0 0 -0 -0 0 0 0 0 0 0 0 0 0 0 0 0 -0 -0 0 0 0 0 2 2 2 0 0 0 0 0
0 0 0 0 0 0 0 0 0 0 0 -0 -0 0 0 0 0 0 0 0 0 0 0 0 0 0 0 0 0 0 0 -0 0 0 0 0 1 3 2 0 0 0 0 0
0 0 0 0 0 0 0 0 0 0 0 -0 0 0 0 0 -0 0 0 0 0 0 0 0 0 0 0 0 0 0 0 -0 0 0 0 1 1 3 2 1 0 0 0 0
-0 0 0 0 0 0 0 0 0 0 0 0 0 0 0 0 0 0 0 0 0 -0 0 -0 0 -0 0 0 0 0 0 0 0 0 1 0 0 0 0 0 0 0 0 0
-0 -0 0 0 0 0 -0 -0 0 0 0 0 0 0 0 0 0 0 0 0 0 -0 0 0 0 0 0 0 0 0 0 0 0 0 1 0 0 0 0 0 0 0 0 0
0 0 0 0 0 0 0 0 0 0 0 0 0 0 0 0 0 0 0 0 0 0 0 0 0 0 0 0 0 0 0 0 0 0 0 0 0 0 0 0 0 0 0 0
0 0 0 0 0 0 0 0 0 0 0 0 0 0 0 0 0 0 0 0 -0 0 0 0 0 -0 -0 0 0 0 0 0 0 0 0 0 0 0 0 0 0 0 0 0
0 0 0 0 0 0 0 0 0 0 0 0 0 0 0 0 0 0 0 0 -0 -0 -0 -0 -0 -0 -0 -0 -0 0 0 0 0 0 0 0 0 0 0 0 0 0 0 0
0 0 0 0 0 0 0 0 0 0 0 0 0 0 0 0 0 0 0 -0 0 -0 -0 -0 -0 -0 -0 -0 -0 0 0 0 0 0 0 0 0 0 0 0 0 -0 0 0
Wind_Speed_500mb
33 12 20 32 33 33 34 19 23 26 27 30 39 38 35 48 63 52 68 73 66 61 90 94 68 70 74 63 53 87 89 87 88 84 75 74 70 67 66 64 59 56 60 70
12 13 20 30 31 32 33 29 16 27 29 23 39 42 32 40 37 48 63 71 67 47 69 93 74 57 61 65 60 75 80 79 75 93 93 85 79 75 68 67 67 63 59 59
15 27 21 30 28 28 28 30 23 21 17 23 25 29 19 47 49 57 58 27 31 35 37 31 32 22 74 68 80 76 83 76 109 107 90 85 80 76 77 71 76 74 64 58
16 23 22 18 27 23 27 31 27 33 27 17 7 28 27 35 45 35 49 47 22 22 26 23 23 38 22 31 53 80 96 105 106 102 92 95 100 88 87 78 80 79 71 67
25 37 38 12 15 27 27 18 18 24 31 14 35 10 16 27 40 30 27 48 51 40 45 55 55 43 47 32 39 76 91 95 97 100 90 92 92 89 82 83 80 84 80 75
37 58 9 10 19 20 29 9 24 30 17 19 32 22 21 17 22 31 33 55 59 67 64 64 60 65 65 63 48 54 63 81 91 97 98 95 93 91 90 80 93 81 87 84
29 26 11 27 36 23 20 8 7 8 6 14 14 25 18 23 21 22 30 45 61 46 62 76 77 75 85 78 73 63 65 66 85 86 90 91 94 95 94 94 89 92 92 96
19 24 21 42 33 23 19 1 6 10 8 20 28 11 19 14 13 41 71 53 56 62 71 60 94 92 87 95 91 71 79 73 85 93 94 96 97 100 94 101 93 104 101 96
10 16 43 44 29 18 12 8 17 5 11 6 9 14 7 31 33 43 59 73 52 79 64 59 74 69 87 98 96 93 73 89 86 94 99 95 104 110 105 97 96 98 99 97
7 25 19 28 36 9 9 25 5 3 7 10 11 11 5 32 34 39 39 45 67 85 84 34 36 17 4 43 95 88 90 90 97 91 104 97 104 114 112 108 93 96 97 96
14 3 20 21 9 25 10 8 6 10 5 5 9 9 4 23 8 22 23 51 64 76 82 67 21 16 9 9 26 55 90 89 100 96 96 101 96 106 115 105 91 89 96 88
7 7 10 37 47 13 9 17 10 7 10 9 7 5 39 32 25 33 40 59 76 73 73 70 47 33 30 28 29 33 36 103 110 102 94 103 94 90 97 104 99 83 89 86
4 6 13 13 8 2 10 28 16 16 7 11 6 6 13 21 31 43 42 50 68 65 61 67 61 46 41 41 41 23 39 50 73 98 94 85 86 85 78 90 93 92 79 86
24 8 12 15 30 29 24 43 36 16 8 13 9 36 39 34 36 44 55 60 56 59 65 61 54 46 37 35 39 34 35 48 43 48 78 79 83 83 79 82 98 95 85 84
10 11 13 28 34 37 23 29 35 32 24 11 26 35 29 38 41 44 63 57 64 62 63 54 45 46 41 42 39 45 41 36 46 41 19 78 79 78 74 76 94 104 82 55
5 9 14 29 34 22 8 24 34 37 40 19 27 16 35 48 47 49 57 59 52 54 56 54 48 32 33 31 34 65 48 51 47 54 39 27 74 79 81 83 89 105 98 96
4 6 7 11 30 32 5 15 16 22 26 16 26 29 30 27 28 40 33 47 51 53 54 65 54 43 38 37 33 37 70 56 55 63 51 38 44 74 82 87 94 101 101 104
9 5 2 12 17 6 5 3 19 23 5 16 17 27 35 43 59 49 32 47 58 55 52 58 63 62 51 48 44 43 56 56 51 56 59 46 41 66 62 79 98 107 110 98
13 6 4 7 5 5 2 11 17 11 1 28 25 24 36 53 45 29 52 62 59 61 59 58 58 62 62 53 42 45 50 59 54 57 58 54 35 54 68 73 77 86 87 85
15 11 3 5 6 7 2 24 44 11 6 34 25 22 27 44 19 15 71 67 62 54 50 51 57 58 58 56 44 39 46 63 40 32 73 53 41 48 47 60 65 75 89 97
7 2 6 6 7 1 9 26 46 5 11 38 31 33 37 16 24 61 65 65 54 42 41 43 44 43 46 46 41 39 41 40 36 29 64 41 28 38 36 62 67 71 89 98
6 3 3 6 6 7 23 9 7 11 24 25 29 36 42 40 60 61 58 58 55 49 39 29 22 20 23 30 30 29 22 17 14 27 44 40 40 31 55 40 77 110 110 103
4 9 5 10 7 5 9 2 15 19 15 22 28 43 43 50 49 61 64 61 60 55 44 31 26 19 8 12 18 22 20 18 5 18 33 54 54 55 61 79 65 90 99 110
8 10 6 4 2 7 6 13 12 14 14 22 31 27 37 54 39 58 60 63 63 58 51 42 39 35 26 12 9 10 10 13 19 45 58 65 80 80 80 82 67 60 64 94
14 5 5 10 8 12 6 16 14 14 15 17 17 24 34 47 43 51 50 60 63 64 53 48 45 42 38 28 24 21 26 26 29 44 56 64 65 77 80 82 81 86 86 75
11 8 5 7 8 7 12 17 12 11 13 16 21 29 26 35 42 44 52 58 55 61 61 52 47 45 42 33 27 27 28 32 42 55 69 73 77 77 77 77 76 58 62 69
Wind_Direction_500mb
319 0 320 315 319 308 313 279 270 276 288 294 288 289 300 311 305 285 232 244 240 249 238 240 244 245 244 248 212 201 196 185 190 198 185 186 192 205 206 210 215 206 206 208
343 296 298 303 298 307 310 298 255 259 278 308 319 302 307 295 284 293 303 227 228 243 231 224 225 232 236 237 237 208 200 205 217 203 203 199 195 202 209 210 213 215 214 214
299 281 289 313 306 299 295 299 304 314 321 281 294 293 313 309 312 315 300 278 208 215 217 219 229 254 224 229 238 214 209 207 200 199 204 198 202 200 204 209 216 217 217 217
278 300 325 300 304 327 314 319 321 316 308 286 287 301 310 300 299 301 300 306 271 268 281 285 269 237 243 243 235 225 205 194 201 202 200 205 204 202 207 207 215 218 220 219
313 344 320 325 314 318 304 341 341 320 316 325 282 253 262 294 285 285 294 285 281 262 269 274 274 275 252 261 228 215 206 202 204 206 208 208 209 214 210 213 217 219 220 222
335 311 337 330 340 323 312 3 329 302 273 261 257 252 267 254 265 276 284 293 302 252 253 255 254 261 261 257 249 215 213 208 213 210 210 212 217 215 209 214 213 219 218 219
333 330 335 24 341 317 315 46 328 322 1 273 271 246 232 253 231 259 283 285 292 281 250 249 243 236 244 248 247 236 220 213 213 213 213 219 223 221 222 213 217 216 219 218
350 322 336 345 307 294 339 288 187 291 295 296 293 263 239 250 290 6 343 283 295 306 297 280 239 234 228 235 241 236 227 232 215 214 215 220 226 224 217 217 217 217 218 219
326 281 316 303 350 322 351 346 306 175 247 272 253 284 286 19 7 360 347 354 347 339 300 266 235 222 226 225 234 238 234 230 216 215 219 222 226 224 219 219 217 216 217 222
279 296 295 308 314 83 296 300 317 304 300 301 303 301 5 2 359 352 346 333 346 349 350 267 236 290 200 226 230 230 229 230 220 219 220 224 228 226 224 218 216 218 222 227
319 217 287 307 320 354 358 6 357 271 143 263 327 318 140 6 12 295 333 350 345 330 343 351 330 230 316 338 24 238 227 228 224 221 224 225 227 230 227 222 217 219 222 223
310 269 280 291 294 183 222 322 328 324 346 289 236 311 40 32 5 345 336 348 345 332 326 346 344 3 345 349 359 20 10 225 227 222 224 223 228 235 232 227 221 223 216 213
285 294 306 311 20 123 319 313 323 302 216 249 292 335 135 6 10 357 334 340 330 319 320 336 347 345 348 332 326 359 351 6 223 216 221 223 227 231 235 228 218 217 216 209
147 215 214 271 280 297 298 307 309 305 290 333 297 335 341 359 354 342 333 329 320 319 324 333 342 351 345 324 327 319 323 3 357 225 220 224 225 227 228 227 218 216 210 203
158 258 247 266 287 292 313 34 21 5 341 321 322 320 335 346 338 325 318 321 316 314 318 334 348 354 342 320 304 312 310 326 346 348 288 224 224 226 225 225 221 213 201 180
107 274 311 289 290 314 107 32 10 356 348 337 324 333 358 331 328 322 320 320 313 303 306 320 324 330 340 326 277 271 283 291 312 331 322 328 218 219 225 226 222 213 203 199
218 265 303 286 314 312 72 33 353 321 342 338 348 321 327 330 327 325 330 331 323 321 315 303 312 306 302 308 298 262 273 266 272 294 308 311 258 223 220 232 221 206 205 201
202 246 338 292 317 349 105 346 328 317 5 3 333 324 330 327 322 317 331 328 317 311 310 306 295 293 293 299 296 280 261 261 265 273 294 303 281 231 219 232 227 207 204 205
180 111 292 297 287 217 82 344 313 348 141 14 350 336 331 329 317 309 327 331 320 316 309 298 296 291 288 291 301 284 254 269 275 264 285 310 267 228 205 215 219 203 202 205
105 114 179 293 287 286 63 322 318 271 218 9 358 337 329 328 340 321 334 330 326 325 310 305 303 297 292 287 295 280 250 264 277 274 251 304 269 218 210 209 206 200 192 187
319 257 209 279 266 218 345 335 326 65 310 338 343 330 332 329 315 315 318 330 337 334 327 313 306 307 303 298 292 283 272 279 281 257 207 258 249 212 192 173 184 182 186 189
245 302 339 325 272 279 24 13 39 294 305 332 330 330 322 337 343 338 342 347 355 358 351 339 328 316 310 301 300 293 263 246 217 213 195 209 212 194 174 150 147 166 167 172
274 169 207 184 241 118 89 322 324 322 321 331 327 325 339 339 343 351 356 359 3 13 13 18 26 31 6 302 258 236 244 263 179 208 176 187 150 155 163 170 175 159 167 164
349 132 209 223 123 357 136 346 339 333 330 330 331 338 349 342 0 360 4 8 10 17 21 31 41 47 56 85 172 189 191 243 171 146 153 159 156 155 160 171 177 170 167 167
237 343 264 256 94 117 136 333 323 325 341 340 350 346 358 352 359 11 11 13 19 21 26 35 44 52 58 81 114 138 145 161 162 151 152 150 159 158 159 156 156 166 167 176
218 208 174 255 162 190 275 293 303 304 330 347 344 348 5 16 14 12 15 19 23 24 29 33 41 51 57 66 85 111 136 144 142 144 141 148 151 152 152 148 138 141 154 163
Wind_Speed_850mb
33 12 20 32 33 33 34 19 23 26 27 30 39 38 35 48 63 52 68 73 66 61 90 94 68 70 74 63 53 87 89 87 88 84 75 74 70 67 66 64 59 56 60 70
12 13 20 30 31 32 33 29 16 27 29 23 39 42 32 40 37 48 63 71 67 47 69 93 74 57 61 65 60 75 80 79 75 93 93 85 79 75 68 67 67 63 59 59
15 27 21 30 28 28 28 30 23 21 17 23 25 29 19 47 49 57 58 27 31 35 37 31 32 22 74 68 80 76 83 76 109 107 90 85 80 76 77 71 76 74 64 58
16 23 22 18 27 23 27 31 27 33 27 17 7 28 27 35 45 35 49 47 22 22 26 23 23 38 22 31 53 80 96 105 106 102 92 95 100 88 87 78 80 79 71 67
25 37 38 12 15 27 27 18 18 24 31 14 35 10 16 27 40 30 27 48 51 40 45 55 55 43 47 32 39 76 91 95 97 100 90 92 92 89 82 83 80 84 80 75
37 58 9 10 19 20 29 9 24 30 17 19 32 22 21 17 22 31 33 55 59 67 64 64 60 65 65 63 48 54 63 81 91 97 98 95 93 91 90 80 93 81 87 84
29 26 11 27 36 23 20 8 7 8 6 14 14 25 18 23 21 22 30 45 61 46 62 76 77 75 85 78 73 63 65 66 85 86 90 91 94 95 94 94 89 92 92 96
19 24 21 42 33 23 19 1 6 10 8 20 28 11 19 14 13 41 71 53 56 62 71 60 94 92 87 95 91 71 79 73 85 93 94 96 97 100 94 101 93 104 101 96
10 16 43 44 29 18 12 8 17 5 11 6 9 14 7 31 33 43 59 73 52 79 64 59 74 69 87 98 96 93 73 89 86 94 99 95 104 110 105 97 96 98 99 97
7 25 19 28 36 9 9 25 5 3 7 10 11 11 5 32 34 39 39 45 67 85 84 34 36 17 4 43 95 88 90 90 97 91 104 97 104 114 112 108 93 96 97 96
14 3 20 21 9 25 10 8 6 10 5 5 9 9 4 23 8 22 23 51 64 76 82 67 21 16 9 9 26 55 90 89 100 96 96 101 96 106 115 105 91 89 96 88
7 7 10 37 47 13 9 17 10 7 10 9 7 5 39 32 25 33 40 59 76 73 73 70 47 33 30 28 29 33 36 103 110 102 94 103 94 90 97 104 99 83 89 86
4 6 13 13 8 2 10 28 16 16 7 11 6 6 13 21 31 43 42 50 68 65 61 67 61 46 41 41 41 23 39 50 73 98 94 85 86 85 78 90 93 92 79 86
24 8 12 15 30 29 24 43 36 16 8 13 9 36 39 34 36 44 55 60 56 59 65 61 54 46 37 35 39 34 35 48 43 48 78 79 83 83 79 82 98 95 85 84
10 11 13 28 34 37 23 29 35 32 24 11 26 35 29 38 41 44 63 57 64 62 63 54 45 46 41 42 39 45 41 36 46 41 19 78 79 78 74 76 94 104 82 55
5 9 14 29 34 22 8 24 34 37 40 19 27 16 35 48 47 49 57 59 52 54 56 54 48 32 33 31 34 65 48 51 47 54 39 27 74 79 81 83 89 105 98 96
4 6 7 11 30 32 5 15 16 22 26 16 26 29 30 27 28 40 33 47 51 53 54 65 54 43 38 37 33 37 70 56 55 63 51 38 44 74 82 87 94 101 101 104
9 5 2 12 17 6 5 3 19 23 5 16 17 27 35 43 59 49 32 47 58 55 52 58 63 62 51 48 44 43 56 56 51 56 59 46 41 66 62 79 98 107 110 98
13 6 4 7 5 5 2 11 17 11 1 28 25 24 36 53 45 29 52 62 59 61 59 58 58 62 62 53 42 45 50 59 54 57 58 54 35 54 68 73 77 86 87 85
15 11 3 5 6 7 2 24 44 11 6 34 25 22 27 44 19 15 71 67 62 54 50 51 57 58 58 56 44 39 46 63 40 32 73 53 41 48 47 60 65 75 89 97
7 2 6 6 7 1 9 26 46 5 11 38 31 33 37 16 24 61 65 65 54 42 41 43 44 43 46 46 41 39 41 40 36 29 64 41 28 38 36 62 67 71 89 98
6 3 3 6 6 7 23 9 7 11 24 25 29 36 42 40 60 61 58 58 55 49 39 29 22 20 23 30 30 29 22 17 14 27 44 40 40 31 55 40 77 110 110 103
4 9 5 10 7 5 9 2 15 19 15 22 28 43 43 50 49 61 64 61 60 55 44 31 26 19 8 12 18 22 20 18 5 18 33 54 54 55 61 79 65 90 99 110
8 10 6 4 2 7 6 13 12 14 14 22 31 27 37 54 39 58 60 63 63 58 51 42 39 35 26 12 9 10 10 13 19 45 58 65 80 80 80 82 67 60 64 94
14 5 5 10 8 12 6 16 14 14 15 17 17 24 34 47 43 51 50 60 63 64 53 48 45 42 38 28 24 21 26 26 29 44 56 64 65 77 80 82 81 86 86 75
11 8 5 7 8 7 12 17 12 11 13 16 21 29 26 35 42 44 52 58 55 61 61 52 47 45 42 33 27 27 28 32 42 55 69 73 77 77 77 77 76 58 62 69
Wind_Direction_850mb
319 0 320 315 319 308 313 279 270 276 288 294 288 289 300 311 305 285 232 244 240 249 238 240 244 245 244 248 212 201 196 185 190 198 185 186 192 205 206 210 215 206 206 208
343 296 298 303 298 307 310 298 255 259 278 308 319 302 307 295 284 293 303 227 228 243 231 224 225 232 236 237 237 208 200 205 217 203 203 199 195 202 209 210 213 215 214 214
299 281 289 313 306 299 295 299 304 314 321 281 294 293 313 309 312 315 300 278 208 215 217 219 229 254 224 229 238 214 209 207 200 199 204 198 202 200 204 209 216 217 217 217
278 300 325 300 304 327 314 319 321 316 308 286 287 301 310 300 299 301 300 306 271 268 281 285 269 237 243 243 235 225 205 194 201 202 200 205 204 202 207 207 215 218 220 219
313 344 320 325 314 318 304 341 341 320 316 325 282 253 262 294 285 285 294 285 281 262 269 274 274 275 252 261 228 215 206 202 204 206 208 208 209 214 210 213 217 219 220 222
335 311 337 330 340 323 312 3 329 302 273 261 257 252 267 254 265 276 284 293 302 252 253 255 254 261 261 257 249 215 213 208 213 210 210 212 217 215 209 214 213 219 218 219
333 330 335 24 341 317 315 46 328 322 1 273 271 246 232 253 231 259 283 285 292 281 250 249 243 236 244 248 247 236 220 213 213 213 213 219 223 221 222 213 217 216 219 218
350 322 336 345 307 294 339 288 187 291 295 296 293 263 239 250 290 6 343 283 295 306 297 280 239 234 228 235 241 236 227 232 215 214 215 220 226 224 217 217 217 217 218 219
326 281 316 303 350 322 351 346 306 175 247 272 253 284 286 19 7 360 347 354 347 339 300 266 235 222 226 225 234 238 234 230 216 215 219 222 226 224 219 219 217 216 217 222
279 296 295 308 314 83 296 300 317 304 300 301 303 301 5 2 359 352 346 333 346 349 350 267 236 290 200 226 230 230 229 230 220 219 220 224 228 226 224 218 216 218 222 227
319 217 287 307 320 354 358 6 357 271 143 263 327 318 140 6 12 295 333 350 345 330 343 351 330 230 316 338 24 238 227 228 224 221 224 225 227 230 227 222 217 219 222 223
310 269 280 291 294 183 222 322 328 324 346 289 236 311 40 32 5 345 336 348 345 332 326 346 344 3 345 349 359 20 10 225 227 222 224 223 228 235 232 227 221 223 216 213
285 294 306 311 20 123 319 313 323 302 216 249 292 335 135 6 10 357 334 340 330 319 320 336 347 345 348 332 326 359 351 6 223 216 221 223 227 231 235 228 218 217 216 209
147 215 214 271 280 297 298 307 309 305 290 333 297 335 341 359 354 342 333 329 320 319 324 333 342 351 345 324 327 319 323 3 357 225 220 224 225 227 228 227 218 216 210 203
158 258 247 266 287 292 313 34 21 5 341 321 322 320 335 346 338 325 318 321 316 314 318 334 348 354 342 320 304 312 310 326 346 348 288 224 224 226 225 225 221 213 201 180
107 274 311 289 290 314 107 32 10 356 348 337 324 333 358 331 328 322 320 320 313 303 306 320 324 330 340 326 277 271 283 291 312 331 322 328 218 219 225 226 222 213 203 199
218 265 303 286 314 312 72 33 353 321 342 338 348 321 327 330 327 325 330 331 323 321 315 303 312 306 302 308 298 262 273 266 272 294 308 311 258 223 220 232 221 206 205 201
202 246 338 292 317 349 105 346 328 317 5 3 333 324 330 327 322 317 331 328 317 311 310 306 295 293 293 299 296 280 261 261 265 273 294 303 281 231 219 232 227 207 204 205
180 111 292 297 287 217 82 344 313 348 141 14 350 336 331 329 317 309 327 331 320 316 309 298 296 291 288 291 301 284 254 269 275 264 285 310 267 228 205 215 219 203 202 205
105 114 179 293 287 286 63 322 318 271 218 9 358 337 329 328 340 321 334 330 326 325 310 305 303 297 292 287 295 280 250 264 277 274 251 304 269 218 210 209 206 200 192 187
319 257 209 279 266 218 345 335 326 65 310 338 343 330 332 329 315 315 318 330 337 334 327 313 306 307 303 298 292 283 272 279 281 257 207 258 249 212 192 173 184 182 186 189
245 302 339 325 272 279 24 13 39 294 305 332 330 330 322 337 343 338 342 347 355 358 351 339 328 316 310 301 300 293 263 246 217 213 195 209 212 194 174 150 147 166 167 172
274 169 207 184 241 118 89 322 324 322 321 331 327 325 339 339 343 351 356 359 3 13 13 18 26 31 6 302 258 236 244 263 179 208 176 187 150 155 163 170 175 159 167 164
349 132 209 223 123 357 136 346 339 333 330 330 331 338 349 342 0 360 4 8 10 17 21 31 41 47 56 85 172 189 191 243 171 146 153 159 156 155 160 171 177 170 167 167
237 343 264 256 94 117 136 333 323 325 341 340 350 346 358 352 359 11 11 13 19 21 26 35 44 52 58 81 114 138 145 161 162 151 152 150 159 158 159 156 156 166 167 176
218 208 174 255 162 190 275 293 303 304 330 347 344 348 5 16 14 12 15 19 23 24 29 33 41 51 57 66 85 111 136 144 142 144 141 148 151 152 152 148 138 141 154 163